Minneapolis Flying Cloud, MN

7:42 PM CDT on October 17, 2017 (GMT -0500)
Flying Cloud

Weather History for KFCM - December, 2012

Change the Weather History Date:

Sunday, December 16, 2012

  Actual Average Record
Temperature  
Mean Temperature 27 °F -  
Max Temperature 35 °F 27 °F 46 °F (2006)
Min Temperature 19 °F 13 °F -14 °F (2008)
Degree Days  
Heating Degree Days 38    
Moisture  
Dew Point 22 °F    
Average Humidity 89    
Maximum Humidity 93    
Minimum Humidity 85    
Precipitation  
Precipitation 0.00 in - - ()
Sea Level Pressure  
Sea Level Pressure 29.72 in    
Wind  
Wind Speed 9 mph (WNW)    
Max Wind Speed 13 mph    
Max Gust Speed -    
Visibility 4 miles    
Events Fog , Snow    
Averages and records for this station are not official NWS values.
T = Trace of Precipitation, MM = Missing Value Source: NWS Daily Summary

Daily Weather History Graph

Daily Weather History Graph

Search for Another Location

Airport or City:

Trip Planner

Search our weather history database for the weather conditions in past years. The results will help you decide how hot, cold, wet, or windy it might be!

Date:

Astronomy

Dec. 16, 2012 Rise Set
Actual Time 7:45 AM CST 4:33 PM CST
Civil Twilight 7:11 AM CST 5:07 PM CST
Nautical Twilight 6:34 AM CST 5:44 PM CST
Astronomical Twilight 5:59 AM CST 6:20 PM CST
Moon 10:11 AM CST (12/16) 8:57 PM CST (12/16)
Length of Visible Light 9h 55m
Length of Day
8h 48m
Waxing Crescent, 16% of the Moon is Illuminated
Dec 16
Waxing Crescent
Dec 19
First Quarter
Dec 28
Full
Jan 4
Last Quarter
Jan 11
New

Hourly Weather History & Observations

Time (CST) Temp. Windchill Dew Point Humidity Pressure Visibility Wind Dir Wind Speed Gust Speed Precip Events Conditions
12:53 AM 34.0 °F 26.6 °F 32.0 °F 92% 29.58 in 7.0 mi WNW 9.2 mph - N/A   Overcast
1:53 AM 34.0 °F 26.6 °F 32.0 °F 92% 29.59 in 10.0 mi NW 9.2 mph - N/A   Overcast
2:53 AM 35.1 °F 28.6 °F 32.0 °F 89% 29.61 in 10.0 mi WNW 8.1 mph - N/A   Overcast
3:53 AM 35.1 °F 27.9 °F 32.0 °F 89% 29.62 in 8.0 mi WNW 9.2 mph - N/A   Overcast
4:53 AM 33.1 °F 26.1 °F 30.9 °F 92% 29.65 in 3.0 mi West 8.1 mph - N/A   Overcast
5:53 AM 32.0 °F 23.6 °F 30.0 °F 92% 29.67 in 3.0 mi West 10.4 mph - N/A   Overcast
6:53 AM 30.9 °F 22.2 °F 28.0 °F 89% 29.68 in 3.0 mi WNW 10.4 mph - N/A   Overcast
7:53 AM 28.9 °F 18.6 °F 26.1 °F 89% 29.69 in 4.0 mi WNW 12.7 mph - N/A   Overcast
8:09 AM 28.4 °F 19.7 °F 24.8 °F 86% 29.67 in 2.0 mi West 9.2 mph - N/A   Overcast
8:50 AM 26.6 °F 16.8 °F 24.8 °F 93% 29.68 in 1.8 mi WNW 10.4 mph - N/A   Overcast
8:53 AM 27.0 °F 18.0 °F 24.1 °F 89% 29.71 in 1.8 mi NW 9.2 mph - N/A   Overcast
9:06 AM 26.6 °F 18.2 °F 24.8 °F 93% 29.69 in 2.0 mi West 8.1 mph - N/A   Overcast
9:53 AM 25.0 °F 15.5 °F 23.0 °F 92% 29.74 in 1.5 mi West 9.2 mph - N/A   Overcast
10:53 AM 21.9 °F 10.4 °F 19.9 °F 92% 29.77 in 0.8 mi West 11.5 mph - N/A   Overcast
11:18 AM 21.2 °F 10.9 °F 19.4 °F 93% 29.72 in 1.0 mi WNW 9.2 mph - N/A   Overcast
11:44 AM 21.2 °F 10.9 °F 19.4 °F 93% 29.72 in 0.8 mi West 9.2 mph - N/A   Overcast
11:51 AM 21.2 °F 10.9 °F 19.4 °F 93% 29.71 in 1.2 mi West 9.2 mph - N/A   Overcast
11:53 AM 21.9 °F 12.5 °F 19.9 °F 92% 29.75 in 1.2 mi West 8.1 mph - N/A   Overcast
12:21 PM 23.0 °F 13.9 °F 19.4 °F 86% 29.71 in 2.0 mi West 8.1 mph - N/A   Overcast
12:36 PM 23.0 °F 13.9 °F 21.2 °F 93% 29.71 in 1.8 mi WNW 8.1 mph - N/A   Overcast
12:53 PM 21.9 °F 11.0 °F 19.9 °F 92% 29.75 in 1.8 mi West 10.4 mph - N/A   Overcast
1:20 PM 23.0 °F 13.9 °F 19.4 °F 86% 29.72 in 0.5 mi WNW 8.1 mph - 0.00 in Fog , Snow Light Snow
1:34 PM 21.2 °F 10.1 °F 19.4 °F 93% 29.72 in 1.2 mi WNW 10.4 mph - 0.00 in   Overcast
1:49 PM 21.2 °F 11.7 °F 19.4 °F 93% 29.72 in 2.5 mi WNW 8.1 mph - 0.00 in   Overcast
1:53 PM 21.9 °F 14.5 °F 19.9 °F 92% 29.75 in 2.5 mi West 5.8 mph - 0.00 in   Overcast
2:18 PM 21.2 °F 12.6 °F 19.4 °F 93% 29.72 in 3.0 mi West 6.9 mph - N/A   Overcast
2:39 PM 21.2 °F 10.1 °F 17.6 °F 86% 29.72 in 5.0 mi West 10.4 mph - N/A   Overcast
2:53 PM 19.9 °F 9.3 °F 17.1 °F 89% 29.76 in 5.0 mi NW 9.2 mph - N/A   Overcast
4:19 PM 19.4 °F 10.4 °F 15.8 °F 86% 29.74 in 5.0 mi NW 6.9 mph - N/A   Overcast
4:53 PM 19.9 °F 9.3 °F 16.0 °F 85% 29.78 in 7.0 mi NNW 9.2 mph - N/A   Overcast
5:53 PM 21.0 °F 10.6 °F 17.1 °F 85% 29.79 in 8.0 mi NW 9.2 mph - N/A   Overcast
6:53 PM 21.0 °F 12.4 °F 17.1 °F 85% 29.81 in 8.0 mi NNW 6.9 mph - N/A   Overcast
7:53 PM 21.0 °F 11.4 °F 17.1 °F 85% 29.82 in 9.0 mi NW 8.1 mph - N/A   Overcast
8:53 PM 21.0 °F 12.4 °F 17.1 °F 85% 29.83 in 10.0 mi North 6.9 mph - N/A   Overcast
9:53 PM 21.0 °F 13.4 °F 17.1 °F 85% 29.83 in 10.0 mi North 5.8 mph - N/A   Overcast
10:53 PM 21.0 °F 11.4 °F 17.1 °F 85% 29.84 in 10.0 mi NNW 8.1 mph - N/A   Overcast
11:53 PM 21.0 °F 14.6 °F 17.1 °F 85% 29.84 in 10.0 mi North 4.6 mph - N/A   Overcast